Lakeville, MN

11:54 PM CDT on April 20, 2018 (GMT -0500)
Airlake

Weather History for KLVN - December, 2011

Change the Weather History Date:

Friday, December 2, 2011

  Actual Average Record
Temperature  
Mean Temperature 19 °F -  
Max Temperature 30 °F 29 °F 64 °F (1998)
Min Temperature 8 °F 14 °F -18 °F (1976)
Degree Days  
Heating Degree Days 46    
Moisture  
Dew Point 12 °F    
Average Humidity 72    
Maximum Humidity 92    
Minimum Humidity 51    
Precipitation  
Precipitation 0.00 in - - ()
Sea Level Pressure  
Sea Level Pressure 30.26 in    
Wind  
Wind Speed 5 mph (South)    
Max Wind Speed 16 mph    
Max Gust Speed 22 mph    
Visibility 10 miles    
Events      
Averages and records for this station are not official NWS values.
T = Trace of Precipitation, MM = Missing Value Source: NWS Daily Summary

Daily Weather History Graph

Daily Weather History Graph

Search for Another Location

Airport or City:

Astronomy

Dec. 02, 2011 Rise Set
Actual Time 7:30 AM CST 4:33 PM CST
Civil Twilight 6:57 AM CST 5:06 PM CST
Nautical Twilight 6:21 AM CST 5:43 PM CST
Astronomical Twilight 5:46 AM CST 6:18 PM CST
Moon 12:28 PM CST (12/2) No Moon Set
Length of Visible Light 10h 09m
Length of Day
9h 03m
First Quarter, 53% of the Moon is Illuminated
Dec 2
First Quarter
Dec 10
Full
Dec 17
Last Quarter
Dec 24
New
Jan 1
First Quarter

Hourly Weather History & Observations

Time (CST) Temp. Windchill Dew Point Humidity Pressure Visibility Wind Dir Wind Speed Gust Speed Precip Events Conditions
12:10 AM 12.2 °F - 8.6 °F 85% 30.41 in 10.0 mi Calm Calm - N/A   Clear
12:50 AM 12.2 °F 2.9 °F 8.6 °F 85% 30.40 in 10.0 mi West 5.8 mph - N/A   Clear
1:10 AM 10.4 °F - 6.8 °F 85% 30.40 in 10.0 mi Calm Calm - N/A   Clear
1:30 AM 12.2 °F 6.1 °F 8.6 °F 85% 30.40 in 10.0 mi WSW 3.5 mph - N/A   Clear
1:50 AM 12.2 °F 4.3 °F 8.6 °F 85% 30.40 in 10.0 mi WSW 4.6 mph - N/A   Clear
2:10 AM 10.4 °F 2.2 °F 8.6 °F 92% 30.40 in 10.0 mi SW 4.6 mph - N/A   Clear
2:30 AM 10.4 °F 4.0 °F 8.6 °F 92% 30.40 in 10.0 mi WSW 3.5 mph - N/A   Clear
2:50 AM 10.4 °F - 6.8 °F 85% 30.40 in 10.0 mi Calm Calm - N/A   Clear
3:10 AM 10.4 °F - 6.8 °F 85% 30.40 in 10.0 mi Calm Calm - N/A   Clear
3:30 AM 10.4 °F 4.0 °F 6.8 °F 85% 30.39 in 10.0 mi WSW 3.5 mph - N/A   Clear
3:50 AM 10.4 °F 4.0 °F 6.8 °F 85% 30.38 in 10.0 mi SW 3.5 mph - N/A   Clear
4:10 AM 10.4 °F - 6.8 °F 85% 30.37 in 10.0 mi Calm Calm - N/A   Clear
4:30 AM 8.6 °F - 6.8 °F 92% 30.36 in 10.0 mi Calm Calm - N/A   Clear
4:50 AM 8.6 °F - 6.8 °F 92% 30.36 in 10.0 mi Calm Calm - N/A   Clear
5:10 AM 8.6 °F 2.0 °F 6.8 °F 92% 30.36 in 10.0 mi SSW 3.5 mph - N/A   Clear
5:30 AM 8.6 °F 2.0 °F 6.8 °F 92% 30.35 in 10.0 mi SSW 3.5 mph - N/A   Clear
5:50 AM 8.6 °F - 6.8 °F 92% 30.35 in 10.0 mi Calm Calm - N/A   Clear
6:10 AM 8.6 °F - 6.8 °F 92% 30.35 in 10.0 mi Calm Calm - N/A   Clear
6:29 AM 10.4 °F - 6.8 °F 85% 30.35 in 10.0 mi Calm Calm - N/A   Clear
6:50 AM 8.6 °F - 6.8 °F 92% 30.34 in 10.0 mi Calm Calm - N/A   Clear
7:10 AM 8.6 °F - 6.8 °F 92% 30.34 in 10.0 mi Calm Calm - N/A   Clear
7:29 AM 8.6 °F - 6.8 °F 92% 30.34 in 10.0 mi Calm Calm - N/A   Clear
7:50 AM 8.6 °F - 6.8 °F 92% 30.33 in 10.0 mi Calm Calm - N/A   Clear
8:09 AM 10.4 °F 4.0 °F 6.8 °F 85% 30.33 in 10.0 mi South 3.5 mph - N/A   Clear
8:49 AM 15.8 °F 7.2 °F 8.6 °F 73% 30.32 in 10.0 mi South 5.8 mph - N/A   Clear
9:10 AM 15.8 °F 6.1 °F 8.6 °F 73% 30.32 in 10.0 mi SSW 6.9 mph - N/A   Clear
9:30 AM 17.6 °F 8.2 °F 10.4 °F 73% 30.32 in 10.0 mi South 6.9 mph - N/A   Clear
9:50 AM 19.4 °F 8.6 °F 10.4 °F 68% 30.31 in 10.0 mi South 9.2 mph - N/A   Clear
10:10 AM 19.4 °F 6.0 °F 10.4 °F 68% 30.32 in 10.0 mi South 13.8 mph - N/A   Clear
10:30 AM 21.2 °F 10.9 °F 10.4 °F 63% 30.32 in 10.0 mi SSW 9.2 mph 17.3 mph N/A   Clear
10:50 AM 21.2 °F 11.7 °F 12.2 °F 68% 30.31 in 10.0 mi South 8.1 mph - N/A   Clear
11:10 AM 23.0 °F 12.4 °F 12.2 °F 63% 30.30 in 10.0 mi South 10.4 mph - N/A   Clear
11:29 AM 24.8 °F 15.3 °F 12.2 °F 59% 30.28 in 10.0 mi South 9.2 mph 17.3 mph N/A   Clear
11:50 AM 24.8 °F 12.9 °F 12.2 °F 59% 30.26 in 10.0 mi South 13.8 mph - N/A   Clear
12:10 PM 26.6 °F 15.2 °F 12.2 °F 55% 30.25 in 10.0 mi South 13.8 mph 17.3 mph N/A   Clear
12:29 PM 26.6 °F 15.2 °F 14.0 °F 59% 30.24 in 10.0 mi South 13.8 mph 17.3 mph N/A   Clear
12:50 PM 26.6 °F 15.2 °F 14.0 °F 59% 30.23 in 10.0 mi South 13.8 mph 20.7 mph N/A   Clear
1:10 PM 28.4 °F 19.1 °F 14.0 °F 55% 30.22 in 10.0 mi South 10.4 mph 19.6 mph N/A   Clear
1:30 PM 30.2 °F 18.9 °F 15.8 °F 55% 30.21 in 10.0 mi South 16.1 mph 20.7 mph N/A   Clear
1:50 PM 30.2 °F 19.8 °F 15.8 °F 55% 30.20 in 10.0 mi South 13.8 mph 20.7 mph N/A   Clear
2:10 PM 30.2 °F 18.9 °F 14.0 °F 51% 30.19 in 10.0 mi South 16.1 mph 20.7 mph N/A   Clear
2:29 PM 30.2 °F 19.3 °F 15.8 °F 55% 30.19 in 10.0 mi South 15.0 mph 21.9 mph N/A   Clear
2:50 PM 30.2 °F 19.8 °F 14.0 °F 51% 30.18 in 10.0 mi South 13.8 mph - N/A   Clear
3:10 PM 30.2 °F 21.3 °F 15.8 °F 55% 30.17 in 10.0 mi South 10.4 mph - N/A   Clear
3:29 PM 30.2 °F 20.8 °F 15.8 °F 55% 30.16 in 10.0 mi South 11.5 mph 17.3 mph N/A   Clear
3:50 PM 30.2 °F 21.3 °F 15.8 °F 55% 30.14 in 10.0 mi South 10.4 mph 16.1 mph N/A   Clear
4:10 PM 30.2 °F 21.9 °F 15.8 °F 55% 30.14 in 10.0 mi South 9.2 mph - N/A   Clear
4:29 PM 30.2 °F 21.9 °F 15.8 °F 55% 30.13 in 10.0 mi South 9.2 mph - N/A   Clear
4:50 PM 28.4 °F 22.2 °F 15.8 °F 59% 30.13 in 10.0 mi SSE 5.8 mph - N/A   Clear
5:10 PM 28.4 °F 21.2 °F 15.8 °F 59% 30.13 in 10.0 mi SSE 6.9 mph - N/A   Clear
5:30 PM 28.4 °F 20.4 °F 15.8 °F 59% 30.13 in 10.0 mi South 8.1 mph - N/A   Clear
5:50 PM 28.4 °F 19.7 °F 15.8 °F 59% 30.11 in 10.0 mi SSE 9.2 mph - N/A   Clear
6:10 PM 28.4 °F 18.5 °F 15.8 °F 59% 30.11 in 10.0 mi South 11.5 mph - N/A   Clear
6:30 PM 28.4 °F 19.1 °F 15.8 °F 59% 30.10 in 10.0 mi South 10.4 mph - N/A   Clear
6:50 PM 28.4 °F 18.5 °F 15.8 °F 59% 30.10 in 10.0 mi South 11.5 mph 17.3 mph N/A   Clear
7:10 PM 28.4 °F 19.1 °F 17.6 °F 64% 30.09 in 10.0 mi South 10.4 mph - N/A   Clear
7:30 PM 28.4 °F 19.7 °F 17.6 °F 64% 30.09 in 10.0 mi South 9.2 mph - N/A   Clear
7:50 PM 28.4 °F 20.4 °F 17.6 °F 64% 30.09 in 10.0 mi South 8.1 mph - N/A   Clear
8:10 PM 28.4 °F 20.4 °F 17.6 °F 64% 30.10 in 10.0 mi South 8.1 mph - N/A   Clear
8:29 PM 28.4 °F 19.7 °F 19.4 °F 69% 30.09 in 10.0 mi SSE 9.2 mph - N/A   Clear
8:50 PM 28.4 °F 19.7 °F 19.4 °F 69% 30.08 in 10.0 mi South 9.2 mph - N/A   Clear
9:10 PM 28.4 °F 19.7 °F 21.2 °F 74% 30.07 in 10.0 mi SSE 9.2 mph - N/A   Scattered Clouds
9:30 PM 28.4 °F 19.1 °F 21.2 °F 74% 30.06 in 10.0 mi South 10.4 mph - N/A   Mostly Cloudy
9:50 PM 30.2 °F 21.3 °F 23.0 °F 75% 30.06 in 10.0 mi South 10.4 mph - N/A   Overcast
10:10 PM 30.2 °F 21.9 °F 24.8 °F 80% 30.07 in 10.0 mi South 9.2 mph 18.4 mph N/A   Overcast
10:29 PM 30.2 °F 19.3 °F 24.8 °F 80% 30.06 in 10.0 mi South 15.0 mph 27.6 mph N/A   Overcast
10:50 PM 30.2 °F 19.8 °F 24.8 °F 80% 30.06 in 10.0 mi South 13.8 mph 24.2 mph N/A   Overcast
11:10 PM 30.2 °F 20.2 °F 24.8 °F 80% 30.06 in 10.0 mi SSW 12.7 mph 20.7 mph N/A   Overcast
11:30 PM 32.0 °F 23.0 °F 24.8 °F 75% 30.06 in 10.0 mi SSW 11.5 mph 21.9 mph N/A   Overcast
11:50 PM 32.0 °F 25.6 °F 26.6 °F 80% 30.06 in 10.0 mi SSW 6.9 mph 23.0 mph N/A   Overcast